Location: Bats
(43.6587°N, 0.4584°W)
Time: 10:02:41
(UTC+00:00)

Cosmos 1302 Rocket - Visible Passes

Search period start: 10 April 2026 00:00
Search period end: 20 April 2026 00:00
Orbit: 753 x 771 km, 74.0° (Epoch: 9 April)

Date Brightness Start Highest point End Pass type
(mag) Time Alt. Az. Time Alt. Az. Time Alt. Az.
10 Apr 4.1 02:40:13 69° ESE 02:40:17 69° ESE 02:45:26 10° NNE visible
10 Apr 5.7 04:20:21 14° W 04:22:44 18° NW 04:26:14 10° N visible
11 Apr 5.1 02:02:05 37° E 02:02:05 37° E 02:06:12 10° NE visible
11 Apr 5.0 03:42:12 26° W 03:43:26 29° WNW 03:47:55 10° N visible
12 Apr 6.0 01:23:54 20° ENE 01:23:54 20° ENE 01:26:37 10° NE visible
12 Apr 4.3 03:04:02 47° WNW 03:04:16 47° WNW 03:09:17 10° N visible
13 Apr 6.7 00:45:42 11° ENE 00:45:42 11° ENE 00:46:02 10° ENE visible
13 Apr 4.1 02:25:49 70° N 02:25:49 70° N 02:30:26 10° NNE visible
13 Apr 6.0 04:05:57 11° WNW 04:08:00 13° NW 04:10:22 10° NNW visible
14 Apr 4.9 01:47:34 44° ENE 01:47:34 44° ENE 01:51:22 10° NNE visible
14 Apr 5.5 03:27:42 20° WNW 03:28:36 21° NW 03:32:29 10° N visible
15 Apr 5.8 01:09:19 25° ENE 01:09:19 25° ENE 01:12:03 10° NE visible
15 Apr 4.9 02:49:26 33° WNW 02:49:26 33° WNW 02:54:03 10° N visible
16 Apr 6.4 00:31:01 14° ENE 00:31:01 14° ENE 00:32:15 10° NE visible
16 Apr 4.6 02:11:08 49° NNW 02:11:08 49° NNW 02:15:20 10° NNE visible
17 Apr 4.9 01:32:49 46° NNE 01:32:49 46° NNE 01:36:25 10° NNE visible
17 Apr 5.9 03:12:56 15° WNW 03:13:50 15° NW 03:16:49 10° NNW visible
18 Apr 5.6 00:54:28 30° NE 00:54:28 30° NE 00:57:16 10° NNE visible
18 Apr 5.4 02:34:35 24° NW 02:34:35 24° NW 02:38:41 10° N visible
19 Apr 6.2 00:16:06 18° ENE 00:16:06 18° ENE 00:17:50 10° NE visible
19 Apr 5.0 01:56:12 36° NW 01:56:12 36° NW 02:00:08 10° N visible
19 Apr 6.6 23:37:42 10° ENE 23:37:42 10° ENE 23:37:45 10° ENE visible
